User: anonymous   Login
Location: Santa Giusta
(39.8800°N, 8.6069°E)
Time: 20:54:13
(UTC+00:00)
Language:

Meteor 1-11 Rocket - Orbit

View from above orbital plane
View from above orbital plane
View from above satellite
View from above satellite

Ground track
Ground track

The orbit data is extracted from the following two-line orbital elements,

1 05918U 72022B   24056.93255221  .00000237  00000-0  13515-3 0  9992
2 05918  81.2371 120.7464 0057406 297.0866  62.4453 14.06055675661243
Epoch (UTC): 25 February 2024 22:22:52
Eccentricity: 0.0057406
inclination: 81.2371°
perigee height: 831 km
apogee height: 914 km
right ascension of ascending node: 120.7464°
argument of perigee: 297.0866°
revolutions per day: 14.06055675
mean anomaly at epoch: 62.4453°
orbit number at epoch: 66124

The dashed part of the orbit path shows where the satellite is in the earth's shadow,  

DLR